{"data":{"norad_id":81865,"intl_designator":"","name":"UNKNOWN","alt_names":[],"object_type":"UNKNOWN","status":"UNKNOWN","operator":null,"country":null,"launch_date":null,"launch_site_code":null,"launch_vehicle":null,"mission":null,"orbit_class":"UNKNOWN","rcs_meters":null,"size_class":null,"mass_kg":null,"dimensions":null,"purposes":[],"wikipedia_slug":null,"has_3d_model":false,"image_url":null,"decayed_at":null,"tle_current":{"epoch":"2026-05-24T02:40:28.194816Z","epoch_age_seconds":152137,"freshness":"FRESH","line1":"1 81865U          26144.11143744  .00001130  00000+0  91671-3 0  9991","line2":"2 81865  82.8036 263.2681 0060723 261.0586 278.3182 13.88444945631079","mean_motion":13.88444945,"eccentricity":0.0060723,"inclination_deg":82.8036,"raan_deg":263.2681,"arg_perigee_deg":261.0586,"mean_anomaly_deg":278.3182,"bstar":0.00091671,"rev_number":63107,"period_min":103.71315083005,"perigee_km":889.6835084119,"apogee_km":978.48752599433,"semimajor_km":7312.2225172031,"source":"CELESTRAK","updated_at":"2026-05-25T13:38:11.087231Z"}}}